Chilapa Escoba Tercera Seccion, Mexico

9:30 AM CDT on May 26, 2018 (GMT -0500)
C P A Carlos Rovirosa International | | Change Station

Elev 43 ft 18.00 °N, 92.82 °W | Updated 44 minutes ago

Scattered Clouds
Scattered Clouds
79 °F
Feels Like 79 °F
N
7
Wind Variable Wind from West

Today
High -- | Low -- °F
--% Chance of Precip.
Yesterday
High -- | Low -- °F
Precip. -- in
Pressure 29.88 in
Visibility 6.0 miles
Clouds Scattered Clouds 1200 ft
Scattered Clouds 7000 ft
Dew Point 79 °F
Humidity 100%
Rainfall 0.00 in
Snow Depth Not available.
6:34 AM 7:41 PM
Waxing Gibbous, 91% visible
METAR MMVA 261346Z 26006KT 6SM SCT012 SCT070 26/26 A2988 RMK 8/120 HZY
Pressure 29.88 in
Visibility 6.0 miles
Clouds Scattered Clouds 1200 ft
Scattered Clouds 7000 ft
Dew Point 79 °F
Humidity 100%
Rainfall 0.00 in
Snow Depth Not available.
6:34 AM 7:41 PM
Waxing Gibbous, 91% visible
METAR MMVA 261346Z 26006KT 6SM SCT012 SCT070 26/26 A2988 RMK 8/120 HZY

Get Severe Weather Alerts

Thanks for signing up!

Be on the lookout for a verification email in your inbox.

You'll start receiving the daily forecast at 6 AM.

×

10-Day Weather Forecast

No radar image for this location.
×

Almanac

Astronomy

May. 26, 2018 Rise Set
Actual Time
Civil Twilight
Nautical Twilight
Astronomical Twilight
Moon
Length of Visible Light
Length of Day
Tomorrow will be .
, % of the Moon is Illuminated

Today's Extremes

Country Highs Country Lows

Community

WunderPhotos

Category 6

Welcome to Category 6. This is the collective home for Weather Underground's featured writeups by Dr. Jeff Masters (right), Bob Henson (left), Chris Burt, and other regular contributors.

Nearby

Air Quality

  Air Quality AQ Index Pollutant
Not available.

Snow Depth

Station Depth Elevation

Earthquake Activity

City Distance Mag. Time & Date
Minimum magnitude displayed is 2.5.

Coastal Water Temperatures

Place Temperature

Stations

Nearby Weather Stations

Station Location Temp. Windchill Dew Point Humidity Wind Precip. Elev Updated Type